Showing default

VIASAT 3-F1, 56370

Orbit data source: Space-Track

VIASAT 3-F1, 56370 is a payload satellite in GEO that was launched on Mon, 01 May 2023 UTC via an FALCON HEAVY launch vehicle from the Air Force Eastern Test Range (AFETR). Payload-class satellites include a variety of spacecraft equipped with specific instruments for various scientific and technological missions. These include communications satellites like Starlink; space stations such as the ISS; scientific satellites like the Hubble; Earth observation satellites from companies like Planet Labs, Umbra, and HawkEye 360; GPS; miniature CubeSats for education and research; and military/defense satellites.

Loading next visibility...
Identifier
56370, 2023-060A
Orbit
GEO
Last TLE update
5 hours ago
Origin
Manufacturer
Boeing/ES
Mission
Partially operational Commercial Communications
Bus & Motor
BSS-702MP+, R-4D
Mass
6,418 kg wet, 3,500 kg dry
Launch date (UTC)
2023-05-01 (2 years ago)
Launch vehicle
FALCON HEAVY
Launch site
Air Force Eastern Test Range (AFETR)
Object type
Payload
Rocket body
Debris
Shape & HBR
Box + 2 Pan + 1 Rod + 1 Dish, 44 m
Radar Cross Section
58.453 m², Large (>1 m²)

Expand to show TLE details & history

TLE from 5 hours ago
0 VIASAT 3-F1
1 56370U 23060A   25140.43003174 -.00000177  00000-0  00000+0 0  9991
2 56370   0.0191 303.4122 0000263  20.1345 340.6869  1.00270654  7496
Epoch: 2025-05-20T10:19Z
TLE epoch observation values (Epoch: 2025-05-20T10:19:14.742Z)
Latitude
0.00223°
Longitude
-88.91719°
Altitude
35,785.36 km
Speed
3.075 km/s
True Right ascension
20h 16m 53s
True Declination
0° 00' 08"
Sunlit
Object was in daylight at epoch
Visualization orbit readout
Latitude
0.03538°
Longitude
-15.11241°
Altitude
35,785.767 km
Speed
3.075 km/s
Apparent Right ascension
01h 20m 28s
Apparent Declination
-6° 09' 31"
Sunlit
Object is in daylight
Visualization observer readout
Local Sidereal Time
00:07:17
Azimuth
155.601° SSE
Elevation
40.933°
Doppler factor
1
Orbital elements
Apogee altitude
35,789.091 km
Perigee altitude
35,786.873 km
Semi-major axis
42,166.119 km
Eccentricity
0.00003
Inclination
0.0191°
RAAN
303.4122°
Arg. of periapsis
20.1345°
True anomaly
Unknown
Mean anomaly
340.6869°
Eccentric anomaly
Unknown
Mean motion
0.25067 °/min
Orbital period
1,436.17 mins
BSTAR
0
Loading historical data...
56370 neighbors
Loading maneuver chart data...
Loading SW <> Apogee altitude chart data...
Loading historical data...
Loading historical data...
Loading historical data...
Loading historical data...
Loading historical data...
Loading historical data...
Loading historical data...
Other satellites on launch #60 in the year 2023 (2023-05-01 UTC)

VIASAT 3-F1 Visibility forecast

Observer location: undefined°, undefined°

Span
Click to sort rows by Start time (UTC) header in descending order
Start Az.
Max El. time (UTC)
Max El. Az.
Max El.
End time (UTC)
End Az.
1440 mins2025-05-20 15:13:38.896Z155.61° SSE2025-05-20 16:33:38.896Z155.61° SSE33.225°2025-05-21 15:13:38.896Z155.617° SSE
|